User: anonymous   Login
Location: Icefog Observatory
(64.9000°N, 147.4000°W)
Time: 22:05:00
(UTC-08:00)
Language:

AO-73 - Orbit

View from above orbital plane
View from above orbital plane
View from above satellite
View from above satellite

Ground track
Ground track

The orbit data is extracted from the following two-line orbital elements,

1 39444U 13066AE  25197.84018793  .00005074  00000-0  37774-3 0  9991
2 39444  97.7846 159.9073 0040602 260.0665  99.5975 15.02741861629778
Epoch (UTC): 16 July 2025 20:09:52
Eccentricity: 0.0040602
inclination: 97.7846°
perigee height: 530 km
apogee height: 586 km
right ascension of ascending node: 159.9073°
argument of perigee: 260.0665°
revolutions per day: 15.02741861
mean anomaly at epoch: 99.5975°
orbit number at epoch: 62977

The dashed part of the orbit path shows where the satellite is in the earth's shadow,  

DLR